Location: Chervonnoye
(48.6000°N, 34.4000°E)
Time: 05:41:52
(UTC+00:00)

MOS 1 Rocket - Pass Details

Date: 23 November 2020
Orbit: 614 x 830 km, 97.4° (Epoch: 18 January)

Event Time Altitude Azimuth Distance (km) Brightness Sun altitude
Exits shadow 17:14:23 47° 311° (NW) 1,093 4.4 -32.5°
Maximum altitude 17:14:58 49° 290° (WNW) 1,065 4.4 -32.6°
Drops below altitude 10° 17:20:11 10° 217° (SW) 2,433 6.4 -33.5°
Sets 17:22:35 0° 212° (SSW) 3,357 7.1 -33.9°
